• MPC Preparation (Info)

  • MPEC 2002-K06 : 2001 FK185, 2001 FR185, 2001 FK193, 2001 KO76, 2001 KT76, 2001 QY297

    The following Minor Planet Electronic Circular may be linked-to from your own Web pages, but must not otherwise be redistributed electronically.

    A form allowing access to any MPEC is at the bottom of this page.


    Read MPEC 2002-K05 Read MPEC 2002-K07


    M.P.E.C. 2002-K06                                Issued 2002 May 16, 18:51 UT
    
         The Minor Planet Electronic Circulars contain information on unusual
             minor planets and routine data on comets.  They are published
       on behalf of Commission 20 of the International Astronomical Union by the
              Minor Planet Center, Smithsonian Astrophysical Observatory,
                              Cambridge, MA 02138, U.S.A.
    
                 Prepared using the Tamkin Foundation Computer Network
    
                                  MPC@CFA.HARVARD.EDU
              URL http://cfa-www.harvard.edu/iau/mpc.html  ISSN 1523-6714
    
         2001 FK185, 2001 FR185, 2001 FK193, 2001 KO76, 2001 KT76, 2001 QY297
    
           Revision to MPEC 2001-M34, 2001-M36, 2001-M60, 2001-T39, 2001-U19
    
    Observations:
         K01FI5K  C2002 04 07.14140 13 18 20.88 -07 30 36.0          22.2 R      807
         K01FI5K  C2002 04 07.20167 13 18 20.61 -07 30 34.5                      807
         K01FI5K  C2002 04 08.17780 13 18 16.15 -07 30 07.8                      807
         K01FI5R  C2002 04 06.17600 13 20 08.96 -14 40 16.8          21.8 R      807
         K01FI5R  C2002 04 06.31099 13 20 08.22 -14 40 13.2                      807
         K01FI5R  C2002 04 07.20541 13 20 03.29 -14 39 45.2                      807
         K01FJ3K  C2002 04 06.18022 13 48 45.88 -07 48 26.7          21.7 R      807
         K01FJ3K  C2002 04 06.31475 13 48 45.30 -07 48 23.4                      807
         K01FJ3K  C2002 04 07.24030 13 48 41.24 -07 47 59.9                      807
         K01K76O  C2002 04 08.13603 14 37 46.09 -15 16 58.9          22.0 R      807
         K01K76O  C2002 04 08.22273 14 37 45.75 -15 16 57.1                      807
         K01K76O  C2002 04 09.36795 14 37 41.13 -15 16 36.1                      807
         K01K76T  C2002 04 06.22130 14 28 52.41 -13 39 28.6          22.0 R      807
         K01K76T  C2002 04 06.36110 14 28 51.81 -13 39 25.4                      807
         K01K76T  C2002 04 07.26961 14 28 48.01 -13 39 05.7                      807
         K01QT7Y  C2002 04 08.34061 20 50 45.66 -18 13 24.0          20.6 R      807
         K01QT7Y  C2002 04 08.39769 20 50 45.83 -18 13 23.2                      807
         K01QT7Y  C2002 04 09.38121 20 50 48.75 -18 13 12.6                      807
    
    Observer details:
    807 Cerro Tololo Observatory.  Observers M. W. Buie, A. B. Jordan, J. L.
        Elliot.  Measurers M. W. Buie, A. B. Jordan, J. L. Elliot, K. B. Clancy,
        R. L. Millis, L. H. Wasserman, E. Chaing, D. E. Trilling, S. D. Kern.
        4-m telescope + CCD.
    
    Orbital elements:
    2001 FK185
    Eccentricity assumed
    Epoch 2002 May 6.0 TT = JDT 2452400.5                   MPC
    M 346.64406              (2000.0)            P               Q
    n   0.00346309     Peri.  158.44470     -0.81603991     +0.57774335
    a  43.2672987      Node    56.85864     -0.53323590     -0.74112016
    e   0.0369058      Incl.    1.16835     -0.22302096     -0.34198470
    P 285              H    7.5           G   0.15
    Residuals in seconds of arc
    K013P  695  0.0   0.3-    K015M  807  0.3-  0.2+    K0247  807  0.1-  0.0
    K013P  695  0.2-  0.1-    K015N  807  0.4-  0.3+    K0247  807  0.1+  0.1-
    K014P  688  0.2+  0.0     K0168  304  0.3+  0.3+    K0248  807  0.1-  0.0
    K014P  688  0.1-  0.2-    K0169  304  0.4+  0.0
    
    2001 FR185
    Eccentricity assumed
    Epoch 2002 May 6.0 TT = JDT 2452400.5                   MPC
    M 316.88487              (2000.0)            P               Q
    n   0.00394344     Peri.  340.63146     -0.03529547     +0.99495975
    a  39.6782360      Node   287.25792     -0.90345712     -0.07191509
    e   0.2187468      Incl.    5.64029     -0.42722297     +0.06988067
    P 250              H    8.0           G   0.15
    Residuals in seconds of arc
    K013Q  695  0.1-  0.1-    K014T  695  0.1-  0.1+    K0246  807  0.1-  0.3+
    K013Q  695  0.1-  0.1+    K015M  807  0.3-  0.3+    K0246  807  0.1+  0.3-
    K014T  695  0.5+  0.3-    K015M  807  0.0   0.1-    K0247  807  0.0   0.0
    
    2001 FK193
    Eccentricity assumed
    Epoch 2002 May 6.0 TT = JDT 2452400.5                   MPC
    M 342.21107              (2000.0)            P               Q
    n   0.00340511     Peri.  136.81170     -0.68570010     +0.72529707
    a  43.7570685      Node    89.79616     -0.68340228     -0.61251168
    e   0.0273717      Incl.    3.51532     -0.25055278     -0.31428267
    P 289              H    6.9           G   0.15
    Residuals in seconds of arc
    K013P  695  0.1-  0.1-    K015M  807  0.2+  0.2+    K0246  807  0.2-  0.1+
    K013P  695  0.1+  0.0     K0168  304  0.2-  0.3-    K0246  807  0.1+  0.0
    K015M  807  0.0   0.4+    K0169  304  0.1-  0.3-    K0247  807  0.1+  0.0
    
    2001 KO76
    Eccentricity assumed
    Epoch 2002 May 6.0 TT = JDT 2452400.5                   MPC
    M 207.67436              (2000.0)            P               Q
    n   0.00345547     Peri.  332.63325     +0.95674271     -0.28975875
    a  43.3309133      Node    44.23631     +0.27331103     +0.86435476
    e   0.0627214      Incl.    2.14731     +0.09972190     +0.41101182
    P 285              H    6.6           G   0.15
    Residuals in seconds of arc
    K015N  807  0.1+  0.2+    K016A  304  0.1-  0.2-    K0249  807  0.1-  0.1+
    K015N  807  0.1+  0.3+    K0248  807  0.0   0.1-
    K016A  304  0.0   0.3-    K0248  807  0.2+  0.1+
    
    2001 KT76
    Eccentricity assumed
    Epoch 2002 May 6.0 TT = JDT 2452400.5                   MPC
    M  52.41624              (2000.0)            P               Q
    n   0.00320526     Peri.  328.36864     -0.89074508     -0.45449694
    a  45.5575511      Node   184.60075     +0.42298334     -0.82703084
    e   0.1347037      Incl.    1.71203     +0.16630786     -0.33083611
    P 307              H    6.9           G   0.15
    Residuals in seconds of arc
    K015O  807  0.1-  0.2-    K016A  304  0.0   0.2+    K0247  807  0.1+  0.2+
    K015O  807  0.0   0.1-    K0246  807  0.0   0.2-
    K0169  304  0.1+  0.1+    K0246  807  0.1-  0.0
    
    2001 QY297
    Eccentricity assumed
    Epoch 2002 May 6.0 TT = JDT 2452400.5                   MPC
    M 290.92623              (2000.0)            P               Q
    n   0.00343488     Peri.  278.07186     +0.89174675     -0.45180913
    a  43.5039565      Node   108.79108     +0.42512136     +0.81698036
    e   0.0799703      Incl.    1.55059     +0.15511145     +0.35834565
    P 287              H    5.3           G   0.15
    Residuals in seconds of arc
    K018L  807  0.0   0.1-    K019I  688  0.2-  0.0     K0248  807  0.2+  0.1-
    K018L  807  0.0   0.0     K019J  688  0.0   0.1+    K0248  807  0.1+  0.1+
    K019I  688  0.0   0.3-    K019J  688  0.2+  0.3+    K0249  807  0.3-  0.0
    
    Ephemerides:
    2001 FK185               a,e,i = 43.27, 0.04, 1                  q = 41.670
    Date    TT    R. A. (2000) Decl.     Delta      r     Elong.  Phase     V
    2002 05 16    13 15.58   -07 14.3   40.882   41.717   145.2     0.8    23.8
    2002 05 26    13 15.03   -07 11.1   40.988   41.717   135.5     1.0    23.8
    2002 06 05    13 14.58   -07 08.6   41.115   41.716   125.8     1.1    23.8
    2002 06 15    13 14.26   -07 06.8   41.259   41.716   116.1     1.3    23.9
    2002 06 25    13 14.08   -07 05.9   41.415   41.716   106.5     1.3    23.9
    2002 07 05    13 14.03   -07 05.9   41.580   41.716    97.0     1.4    23.9
    2002 07 15    13 14.13   -07 06.7   41.748   41.715    87.5     1.4    23.9
    2002 07 25    13 14.38   -07 08.4   41.915   41.715    78.0     1.4    23.9
    2002 08 04    13 14.77   -07 10.9   42.075   41.715    68.5     1.3    23.9
    2002 08 14    13 15.29   -07 14.3   42.226   41.715    59.1     1.2    23.9
    2002 08 24    13 15.93   -07 18.3   42.362   41.714    49.6     1.1    23.9
    2002 09 03    13 16.68   -07 23.0   42.480   41.714    40.2     0.9    23.9
    2002 09 13    13 17.52   -07 28.2   42.576   41.714    30.7     0.7    23.9
    
    2001 FR185               a,e,i = 39.68, 0.22, 6                  q = 30.999
    Date    TT    R. A. (2000) Decl.     Delta      r     Elong.  Phase     V
    2002 05 16    13 16.70   -14 18.4   33.608   34.467   147.7     0.9    23.5
    2002 05 26    13 16.04   -14 13.3   33.701   34.461   138.0     1.1    23.5
    2002 06 05    13 15.50   -14 08.7   33.817   34.456   128.4     1.3    23.5
    2002 06 15    13 15.12   -14 04.9   33.950   34.450   118.8     1.5    23.5
    2002 06 25    13 14.91   -14 02.0   34.097   34.445   109.2     1.6    23.6
    2002 07 05    13 14.88   -14 00.0   34.253   34.439    99.7     1.7    23.6
    2002 07 15    13 15.02   -13 59.1   34.414   34.434    90.3     1.7    23.6
    2002 07 25    13 15.35   -13 59.2   34.575   34.428    80.8     1.7    23.6
    2002 08 04    13 15.85   -14 00.4   34.732   34.423    71.4     1.6    23.6
    2002 08 14    13 16.51   -14 02.7   34.880   34.417    62.1     1.5    23.6
    2002 08 24    13 17.32   -14 06.1   35.015   34.412    52.7     1.3    23.6
    2002 09 03    13 18.27   -14 10.4   35.133   34.406    43.4     1.2    23.6
    2002 09 13    13 19.33   -14 15.5   35.230   34.401    34.0     0.9    23.6
    
